Date String (YYYY-MM-DD hh:mm:ss) UTC,Instrument flags,absolute air pressure of the measurement (hPa),sample flow rate (lpm),inlet stack bypass flow (lpm),air temperature of the measurement (°C),ambient temperature measured by the external sensor (°C),aerosol sample conditioner tube jacket temperature (°C),OPC LED temperature (°C),internal box temperature (°C),relative humidity of the measurement (%),span deviation,mass concentration of particles derived from Lorenz-Mie calculation of OPC scattering (μg/m³),mass concentration of particles derived from Lorenz-Mie calculation of OPC scattering (μg/m³),mass concentration of particles derived from Lorenz-Mie calculation of OPC scattering (μg/m³)
DateTimeUTC,F1_M11,P_M11,Q1_M11,Q2_M11,T1_M11,T2_M11,T3_M11,T4_M11,T5_M11,U1_M11,ZSPAN_M11,X2_M11,X0_M11,X1_M11
2024-02-18 16:00:00,SystemResetWarning,0825.9,5.00,000.00,018.4,017.9,000.0,026.8,020.1,12.0,0000.0,0002.26,0004.04,0001.97
2024-02-18 16:01:00,SystemResetWarning,0825.9,5.00,000.00,018.4,017.9,000.0,026.8,020.1,12.3,0000.0,0002.33,0004.91,0002.03
2024-02-18 16:02:00,SystemResetWarning,0825.9,5.00,000.00,018.4,018.0,000.0,026.8,020.1,11.9,0000.0,0002.37,0005.13,0002.08
2024-02-18 16:03:00,SystemResetWarning,0825.9,5.00,000.00,018.4,018.0,000.0,026.7,020.1,11.6,0000.0,0002.41,0005.18,0002.10
2024-02-18 16:04:00,SystemResetWarning,0825.9,5.00,000.00,018.4,018.0,000.0,026.8,020.1,12.0,0000.0,0002.43,0005.39,0002.10
2024-02-18 16:05:00,SystemResetWarning,0825.8,5.00,000.00,018.4,018.0,000.0,026.8,020.1,11.2,0000.0,0002.40,0005.36,0002.07
2024-02-18 16:06:00,SystemResetWarning,0825.9,5.00,000.00,018.4,018.0,000.0,026.8,020.1,11.8,0000.0,0002.36,0005.63,0002.02
2024-02-18 16:07:00,SystemResetWarning,0825.9,5.00,000.00,018.4,018.0,000.0,026.8,020.2,11.0,0000.0,0002.31,0007.12,0001.95
2024-02-18 16:08:00,SystemResetWarning,0825.9,5.00,000.00,018.4,018.0,000.0,026.8,020.1,10.8,0000.0,0002.25,0006.98,0001.88
2024-02-18 16:09:00,SystemResetWarning,0825.9,5.00,000.00,018.4,018.0,000.0,026.8,020.1,11.3,0000.0,0002.18,0006.04,0001.80
2024-02-18 16:10:00,SystemResetWarning,0825.9,5.00,000.00,018.4,018.0,000.0,026.8,020.1,11.2,0000.0,0002.11,0005.99,0001.71
2024-02-18 16:11:00,SystemResetWarning,0825.9,5.00,000.00,018.4,018.0,000.0,026.8,020.2,11.5,0000.0,0002.02,0005.76,0001.63
2024-02-18 16:12:00,SystemResetWarning,0825.9,5.00,000.00,018.4,018.0,000.0,026.8,020.2,11.4,0000.0,0001.92,0004.91,0001.53
2024-02-18 16:13:00,SystemResetWarning,0825.9,5.01,000.00,018.4,018.0,000.0,026.8,020.2,10.6,0000.0,0001.82,0006.24,0001.44
2024-02-18 16:14:00,SystemResetWarning,0825.9,5.00,000.00,018.4,018.0,000.0,026.8,020.2,10.9,0000.0,0001.72,0006.83,0001.37
2024-02-18 16:15:00,SystemResetWarning,0825.9,4.99,000.00,018.4,018.0,000.0,026.8,020.2,11.0,0000.0,0001.67,0007.11,0001.34
2024-02-18 16:16:00,SystemResetWarning,0825.9,4.99,000.00,018.4,018.0,000.0,026.8,020.2,10.9,0000.0,0001.64,0007.36,0001.31
2024-02-18 16:17:00,SystemResetWarning,0825.9,5.00,000.00,018.4,018.1,000.0,026.8,020.2,11.3,0000.0,0001.59,0007.12,0001.28
2024-02-18 16:18:00,SystemResetWarning,0825.9,5.02,000.00,018.4,018.1,000.0,026.8,020.2,11.1,0000.0,0001.58,0005.67,0001.26
2024-02-18 16:19:00,SystemResetWarning,0825.9,4.99,000.00,018.4,018.1,000.0,026.8,020.2,11.1,0000.0,0001.60,0005.89,0001.25
2024-02-18 16:20:00,SystemResetWarning,0825.8,4.99,000.00,018.5,018.1,000.0,026.8,020.2,11.3,0000.0,0001.58,0005.84,0001.24
2024-02-18 16:21:00,SystemResetWarning,0825.8,5.00,000.00,018.5,018.1,000.0,026.8,020.2,11.6,0000.0,0001.58,0005.91,0001.23
2024-02-18 16:22:00,SystemResetWarning,0825.7,5.01,000.00,018.5,018.1,000.0,026.8,020.2,12.1,0000.0,0001.56,0007.01,0001.22
2024-02-18 16:23:00,SystemResetWarning,0825.8,5.00,000.00,018.5,018.1,000.0,026.8,020.2,11.7,0000.0,0001.56,0007.13,0001.21
2024-02-18 16:24:00,SystemResetWarning,0825.8,5.00,000.00,018.5,018.1,000.0,026.8,020.2,12.0,0000.0,0001.54,0005.53,0001.20
2024-02-18 16:25:00,SystemResetWarning,0825.8,5.00,000.00,018.5,018.1,000.0,026.8,020.2,12.1,0000.0,0001.55,0004.81,0001.21
2024-02-18 16:26:00,SystemResetWarning,0825.8,4.99,000.00,018.5,018.1,000.0,026.9,020.3,11.8,0000.0,0001.60,0004.36,0001.22
2024-02-18 16:27:00,SystemResetWarning,0825.8,5.00,000.00,018.5,018.1,000.0,026.9,020.3,11.7,0000.0,0001.65,0004.61,0001.25
2024-02-18 16:28:00,SystemResetWarning,0825.7,4.99,000.00,018.5,018.1,000.0,026.9,020.3,11.9,0000.0,0001.67,0004.68,0001.27
2024-02-18 16:29:00,SystemResetWarning,0825.8,5.00,000.00,018.5,018.1,000.0,026.9,020.3,12.3,0000.0,0001.71,0004.60,0001.31
2024-02-18 16:30:00,SystemResetWarning,0825.8,5.00,000.00,018.5,018.1,000.0,026.9,020.3,12.0,0000.0,0001.67,0004.34,0001.32
2024-02-18 16:31:00,SystemResetWarning,0825.7,5.00,000.00,018.5,018.2,000.0,026.9,020.3,11.9,0000.0,0001.73,0004.44,0001.34
2024-02-18 16:32:00,SystemResetWarning,0825.7,5.00,000.00,018.5,018.2,000.0,026.9,020.3,12.2,0000.0,0001.75,0004.43,0001.35
2024-02-18 16:33:00,SystemResetWarning,0825.7,5.00,000.00,018.6,018.2,000.0,026.9,020.3,12.3,0000.0,0001.77,0003.38,0001.38
2024-02-18 16:34:00,SystemResetWarning,0825.6,5.00,000.00,018.5,018.2,000.0,026.9,020.3,12.2,0000.0,0001.80,0003.16,0001.43
2024-02-18 16:35:00,SystemResetWarning,0825.6,5.00,000.00,018.6,018.2,000.0,026.9,020.3,12.4,0000.0,0001.86,0003.35,0001.50
2024-02-18 16:36:00,SystemResetWarning,0825.5,5.00,000.00,018.6,018.2,000.0,026.9,020.3,12.5,0000.0,0001.92,0003.94,0001.56
2024-02-18 16:37:00,SystemResetWarning,0825.5,4.99,000.00,018.6,018.2,000.0,026.9,020.3,13.0,0000.0,0001.95,0004.03,0001.60
2024-02-18 16:38:00,SystemResetWarning,0825.5,5.00,000.00,018.6,018.2,000.0,026.9,020.3,13.0,0000.0,0001.95,0003.69,0001.62
2024-02-18 16:39:00,SystemResetWarning,0825.5,5.00,000.00,018.6,018.2,000.0,026.9,020.3,12.8,0000.0,0001.96,0004.51,0001.62
2024-02-18 16:40:00,SystemResetWarning,0825.4,5.00,000.00,018.6,018.2,000.0,026.9,020.3,12.8,0000.0,0001.93,0005.06,0001.59
2024-02-18 16:41:00,SystemResetWarning,0825.4,5.00,000.00,018.6,018.2,000.0,026.9,020.3,13.3,0000.0,0001.93,0005.05,0001.59
2024-02-18 16:42:00,SystemResetWarning,0825.4,5.00,000.00,018.6,018.2,000.0,026.9,020.3,13.4,0000.0,0001.89,0005.46,0001.59
2024-02-18 16:43:00,SystemResetWarning,0825.4,4.99,000.00,018.6,018.2,000.0,026.9,020.3,13.1,0000.0,0001.90,0005.80,0001.59
2024-02-18 16:44:00,SystemResetWarning,0825.3,4.99,000.00,018.6,018.2,000.0,027.0,020.3,12.9,0000.0,0001.92,0005.97,0001.59
2024-02-18 16:45:00,SystemResetWarning,0825.4,4.99,000.00,018.6,018.2,000.0,027.0,020.3,12.7,0000.0,0001.93,0006.20,0001.57
2024-02-18 16:46:00,SystemResetWarning,0825.4,5.01,000.00,018.6,018.2,000.0,027.0,020.4,12.4,0000.0,0001.92,0006.21,0001.53
2024-02-18 16:47:00,SystemResetWarning,0825.4,5.00,000.00,018.6,018.2,000.0,027.0,020.4,11.8,0000.0,0001.88,0006.46,0001.50
2024-02-18 16:48:00,SystemResetWarning,0825.4,5.00,000.00,018.6,018.2,000.0,027.0,020.4,11.9,0000.0,0001.83,0006.54,0001.46
2024-02-18 16:49:00,SystemResetWarning,0825.4,5.00,000.00,018.6,018.2,000.0,027.0,020.4,11.6,0000.0,0001.82,0006.53,0001.43
2024-02-18 16:50:00,SystemResetWarning,0825.3,5.00,000.00,018.7,018.2,000.0,027.0,020.4,11.5,0000.0,0001.84,0006.05,0001.43
2024-02-18 16:51:00,SystemResetWarning,0825.3,5.00,000.00,018.7,018.2,000.0,027.0,020.4,11.4,0000.0,0001.82,0004.95,0001.45
2024-02-18 16:52:00,SystemResetWarning,0825.3,5.00,000.00,018.7,018.2,000.0,027.0,020.4,11.9,0000.0,0001.84,0004.97,0001.46
2024-02-18 16:53:00,SystemResetWarning,0825.3,5.00,000.00,018.7,018.3,000.0,027.0,020.4,12.5,0000.0,0001.84,0005.26,0001.46
2024-02-18 16:54:00,SystemResetWarning,0825.4,5.00,000.00,018.7,018.3,000.0,027.0,020.4,12.7,0000.0,0001.82,0004.91,0001.47
2024-02-18 16:55:00,SystemResetWarning,0825.4,5.00,000.00,018.7,018.3,000.0,027.0,020.4,12.6,0000.0,0001.79,0004.85,0001.46
2024-02-18 16:56:00,SystemResetWarning,0825.4,4.99,000.00,018.7,018.3,000.0,027.0,020.4,12.2,0000.0,0001.76,0004.62,0001.46
2024-02-18 16:57:00,SystemResetWarning,0825.4,5.00,000.00,018.7,018.3,000.0,027.0,020.4,11.6,0000.0,0001.75,0004.57,0001.45
2024-02-18 16:58:00,SystemResetWarning,0825.4,4.99,000.00,018.7,018.3,000.0,027.0,020.5,11.4,0000.0,0001.75,0003.86,0001.43
2024-02-18 16:59:00,SystemResetWarning,0825.4,5.00,000.00,018.7,018.3,000.0,027.0,020.4,11.6,0000.0,0001.74,0003.63,0001.42
